Cherryvale, KS

8:34 AM CDT on September 28, 2016 (GMT -0500)
Tri-City

Weather History for KPPF - November, 2013

Change the Weather History Date:

Friday, November 22, 2013

  Actual Average Record
Temperature  
Mean Temperature 30 °F -  
Max Temperature 32 °F 55 °F 77 °F (2010)
Min Temperature 28 °F 33 °F 17 °F (2007)
Degree Days  
Heating Degree Days 35    
Moisture  
Dew Point 24 °F    
Average Humidity 79    
Maximum Humidity 85    
Minimum Humidity 73    
Precipitation  
Precipitation 0.00 in - - ()
Sea Level Pressure  
Sea Level Pressure 30.57 in    
Wind  
Wind Speed 14 mph (North)    
Max Wind Speed 20 mph    
Max Gust Speed 29 mph    
Visibility 10 miles    
Events      
Averages and records for this station are not official NWS values.
T = Trace of Precipitation, MM = Missing Value Source: NWS Daily Summary

Daily Weather History Graph

Daily Weather History Graph

Search for Another Location

Airport or City:

Trip Planner

Search our weather history database for the weather conditions in past years. The results will help you decide how hot, cold, wet, or windy it might be!

Date:

Astronomy

Nov. 22, 2013 Rise Set
Actual Time 7:08 AM CST 5:07 PM CST
Civil Twilight 6:40 AM CST 5:35 PM CST
Nautical Twilight 6:08 AM CST 6:07 PM CST
Astronomical Twilight 5:37 AM CST 6:38 PM CST
Moon 9:38 PM CST (11/22) 10:54 AM CST (11/22)
Length of Visible Light 10h 55m
Length of Day
9h 58m
Waning Gibbous, 78% of the Moon is Illuminated
Nov 22
Waning Gibbous
Nov 25
Last Quarter
Dec 2
New
Dec 9
First Quarter
Dec 17
Full

Hourly Weather History & Observations

Time (CST) Temp. Windchill Dew Point Humidity Pressure Visibility Wind Dir Wind Speed Gust Speed Precip Events Conditions
12:27 AM 30.9 °F 18.7 °F 27.0 °F 85% 30.42 in 10.0 mi North 19.6 mph 28.8 mph 0.00 in   Overcast
12:52 AM 30.9 °F 19.4 °F 27.0 °F 85% 30.44 in 10.0 mi North 17.3 mph 26.5 mph 0.00 in   Overcast
1:52 AM 30.0 °F 18.7 °F 26.1 °F 85% 30.46 in 9.0 mi North 16.1 mph 26.5 mph N/A   Overcast
2:52 AM 30.0 °F 18.3 °F 26.1 °F 85% 30.49 in 10.0 mi North 17.3 mph 27.6 mph N/A   Overcast
3:52 AM 28.9 °F 19.8 °F 25.0 °F 85% 30.49 in 10.0 mi North 10.4 mph 23.0 mph N/A   Overcast
4:52 AM 28.9 °F 17.7 °F 25.0 °F 85% 30.51 in 10.0 mi North 15.0 mph 21.9 mph N/A   Overcast
5:52 AM 28.9 °F 17.3 °F 24.1 °F 82% 30.53 in 10.0 mi North 16.1 mph 25.3 mph N/A   Overcast
6:19 AM 28.9 °F 19.2 °F 23.0 °F 78% 30.54 in 10.0 mi North 11.5 mph 21.9 mph N/A   Overcast
6:45 AM 28.9 °F 16.9 °F 23.0 °F 78% 30.55 in 10.0 mi North 17.3 mph 26.5 mph N/A   Overcast
6:52 AM 28.0 °F 17.0 °F 23.0 °F 81% 30.57 in 10.0 mi North 13.8 mph 24.2 mph N/A   Overcast
7:27 AM 28.0 °F 16.5 °F 21.9 °F 78% 30.55 in 8.0 mi North 15.0 mph 21.9 mph N/A   Overcast
7:52 AM 28.0 °F 17.5 °F 21.9 °F 78% 30.59 in 9.0 mi North 12.7 mph 18.4 mph N/A   Overcast
8:10 AM 28.0 °F 19.3 °F 23.0 °F 81% 30.57 in 10.0 mi North 9.2 mph - N/A   Overcast
8:52 AM 28.9 °F 19.8 °F 23.0 °F 78% 30.59 in 8.0 mi North 10.4 mph - N/A   Overcast
9:52 AM 30.0 °F 19.1 °F 23.0 °F 75% 30.61 in 10.0 mi NNE 15.0 mph 21.9 mph N/A   Overcast
10:52 AM 30.9 °F 20.7 °F 24.1 °F 76% 30.62 in 9.0 mi North 13.8 mph 21.9 mph N/A   Overcast
11:52 AM 30.9 °F 21.2 °F 24.1 °F 76% 30.59 in 10.0 mi North 12.7 mph 16.1 mph N/A   Overcast
12:52 PM 32.0 °F 23.6 °F 24.1 °F 73% 30.60 in 10.0 mi North 10.4 mph - N/A   Overcast
1:52 PM 30.9 °F 20.7 °F 25.0 °F 79% 30.60 in 10.0 mi North 13.8 mph - N/A   Overcast
2:52 PM 32.0 °F 24.2 °F 25.0 °F 75% 30.61 in 10.0 mi North 9.2 mph - 0.00 in   Overcast
3:52 PM 30.9 °F 21.2 °F 24.1 °F 76% 30.60 in 10.0 mi North 12.7 mph - N/A   Overcast
4:52 PM 30.9 °F 21.7 °F 25.0 °F 79% 30.61 in 10.0 mi North 11.5 mph - N/A   Overcast
5:21 PM 30.9 °F 22.8 °F 24.1 °F 76% 30.57 in 10.0 mi North 9.2 mph - N/A   Overcast
5:52 PM 30.9 °F 21.7 °F 24.1 °F 76% 30.60 in 10.0 mi North 11.5 mph 17.3 mph N/A   Overcast
6:52 PM 30.9 °F 21.2 °F 24.1 °F 76% 30.59 in 10.0 mi North 12.7 mph - N/A   Overcast
7:52 PM 30.9 °F 22.2 °F 24.1 °F 76% 30.59 in 10.0 mi North 10.4 mph 18.4 mph N/A   Overcast
8:52 PM 30.9 °F 25.2 °F 24.1 °F 76% 30.61 in 10.0 mi North 5.8 mph - N/A   Overcast
9:52 PM 30.9 °F 22.8 °F 24.1 °F 76% 30.62 in 10.0 mi North 9.2 mph 17.3 mph N/A   Overcast
10:52 PM 30.0 °F 21.1 °F 24.1 °F 79% 30.61 in 10.0 mi North 10.4 mph - N/A   Overcast
11:52 PM 30.0 °F 22.4 °F 24.1 °F 79% 30.63 in 10.0 mi North 8.1 mph - N/A   Clear